Theta_e
312 311 311 308 307 307 308 307 305 305 305 304 305 306 306 306 306 306 306 306 306 306 307 307 308 309 311 312 313 315 316 316 318 317 318 318 318 318 317 316 313 311 309
310 309 307 306 306 306 306 306 306 305 305 304 306 307 307 307 306 305 306 306 307 307 306 307 307 308 309 311 311 313 315 315 317 318 317 315 316 315 316 314 311 309 309
307 306 306 305 306 305 306 306 305 306 306 307 307 307 307 307 306 306 306 306 306 306 307 308 308 309 309 310 310 313 313 313 315 317 317 315 314 313 312 310 309 309 307
305 305 305 305 305 306 305 305 306 307 307 307 307 307 306 306 306 306 306 305 305 306 307 307 307 307 308 308 309 310 312 313 313 316 316 315 314 312 312 311 308 307 307
305 305 305 305 306 306 307 307 307 307 307 307 308 307 307 306 306 306 307 305 306 306 306 306 306 306 306 307 308 308 309 311 312 314 314 314 313 312 311 309 308 307 307
305 306 306 306 307 308 307 307 307 306 307 308 308 308 307 305 305 306 306 305 305 306 305 305 305 306 307 307 307 307 309 309 311 314 314 314 312 311 310 308 308 308 307
306 307 307 306 307 307 307 307 307 307 307 307 307 307 307 305 305 307 306 307 305 305 305 304 303 304 305 306 306 307 308 310 310 313 313 313 312 311 310 309 309 309 308
306 307 307 307 307 307 307 307 307 307 307 308 307 307 306 304 305 306 307 307 306 305 304 304 304 303 303 304 306 307 308 310 310 312 312 313 312 310 310 310 309 309 308
306 306 306 306 306 306 307 307 307 307 307 307 307 306 305 304 304 305 306 307 306 305 305 303 302 302 302 303 304 307 309 310 311 311 311 311 310 310 310 310 309 309 308
305 306 306 306 307 306 306 306 306 306 306 307 307 305 304 304 304 304 305 306 305 305 304 302 301 301 302 302 304 307 308 308 309 309 309 309 309 310 311 310 310 310 309
306 305 304 306 306 305 305 306 305 306 306 305 306 306 306 304 304 304 304 303 304 304 303 302 300 301 302 304 305 306 307 308 308 308 308 308 310 310 309 310 309 309 309
306 305 305 306 305 305 305 304 303 305 305 304 304 304 305 304 303 302 303 303 302 303 303 301 301 302 303 304 305 306 307 308 308 308 309 309 310 309 308 308 309 309 309
304 305 305 305 305 305 304 303 302 302 302 302 302 302 301 301 303 302 302 302 302 302 302 301 302 302 303 304 305 306 307 308 309 309 309 309 308 308 308 309 310 309 309
304 304 304 305 305 304 304 303 302 301 301 302 302 301 301 301 300 301 301 301 301 302 301 301 302 303 303 305 305 306 307 308 309 309 308 307 308 308 309 309 309 309 310
304 304 305 305 305 304 303 302 302 301 301 302 302 302 302 301 300 300 300 300 300 301 301 301 302 303 304 305 305 306 307 307 307 307 307 306 307 307 307 307 308 308 307
304 304 304 304 304 303 303 302 302 301 300 301 302 302 302 301 300 300 300 300 300 300 301 301 302 303 304 305 306 306 306 307 307 307 307 307 307 307 307 306 305 304 302
304 304 304 303 302 302 301 302 301 301 301 302 302 302 301 300 300 300 299 299 300 301 301 302 303 303 305 305 306 306 305 306 307 308 308 307 307 306 306 306 304 302 299
304 304 304 303 302 302 301 300 300 299 301 302 302 302 301 300 300 300 300 301 301 302 302 303 304 304 305 305 306 306 306 307 308 308 307 307 307 307 306 303 300 300 300
303 304 303 302 302 301 301 300 299 301 302 302 303 302 302 302 302 303 302 302 302 302 302 303 304 304 305 305 306 306 307 308 308 308 308 308 307 307 303 304 304 304 303
303 303 302 301 300 301 300 300 300 301 302 303 303 303 303 304 305 305 304 304 304 304 305 305 305 305 306 307 308 308 309 309 309 309 310 309 308 304 305 306 306 306 306
303 302 302 302 301 301 301 301 302 302 302 303 304 304 305 305 305 305 306 307 307 307 306 306 306 307 307 308 308 309 310 310 310 310 309 303 301 305 307 307 308 308 308
303 304 303 303 303 304 303 303 303 303 303 303 304 305 305 306 306 306 306 307 307 307 307 308 308 308 308 309 309 310 310 310 309 304 303 303 305 307 308 308 309 309 309
303 303 304 304 304 305 305 304 304 304 304 303 303 305 306 306 307 307 308 307 308 308 308 308 308 309 309 310 310 310 310 310 307 306 307 308 309 309 309 309 309 309 309
304 304 304 304 305 304 305 305 306 306 306 305 305 303 304 305 307 307 307 307 308 309 309 309 310 311 311 311 310 308 306 305 306 308 309 309 310 310 310 309 309 310 309
304 304 304 304 304 304 305 305 306 306 307 306 306 306 305 304 303 304 304 305 305 306 306 308 309 307 307 308 308 308 309 309 309 309 309 309 309 309 309 308 307 308 309
304 303 304 304 304 303 304 305 305 306 306 307 307 306 305 304 304 305 305 305 306 306 306 306 307 308 308 309 309 309 309 309 309 308 308 308 308 308 308 307 307 305 305
Wind_Speed
16 20 24 30 28 21 23 22 20 22 22 17 14 14 12 15 17 18 17 16 16 16 14 15 14 13 13 11 8 4 3 4 5 8 13 13 9 11 12 11 10 10 10
23 25 32 30 21 20 16 12 17 21 18 12 10 15 17 19 19 21 20 18 13 16 16 11 10 10 8 9 8 4 3 2 3 7 13 19 17 12 11 13 13 12 11
20 27 25 20 18 12 11 14 16 20 18 17 14 15 17 13 16 18 15 16 15 14 13 9 7 10 10 9 6 6 3 2 3 8 15 18 19 16 14 14 13 13 13
22 22 21 17 14 14 17 17 16 18 18 17 15 11 13 13 14 15 18 18 16 9 11 10 11 12 10 9 7 6 4 4 2 2 16 20 21 19 12 13 16 14 12
20 18 18 19 19 19 18 17 17 19 15 12 13 9 12 14 12 11 15 16 16 15 14 13 15 15 14 12 8 4 3 3 1 3 17 20 23 19 15 14 17 14 12
15 19 21 19 21 20 17 16 16 15 13 12 10 9 10 12 12 12 11 13 15 13 15 15 15 15 15 12 11 8 3 4 5 7 13 14 22 18 14 17 18 11 10
18 19 20 18 18 18 16 16 15 13 12 11 10 9 10 12 11 11 7 8 9 9 10 11 12 12 11 12 13 9 4 1 8 10 7 8 18 15 17 16 10 8 10
19 19 16 18 17 19 15 13 14 14 12 9 10 8 11 15 13 13 10 6 4 6 8 13 14 13 12 9 10 12 4 2 7 12 9 5 12 17 17 16 13 12 10
15 13 18 17 17 21 15 14 15 14 13 11 11 11 12 14 13 13 13 9 5 4 11 16 18 15 11 6 7 10 6 6 11 12 12 15 21 22 17 14 11 7 10
13 13 17 19 14 17 14 14 12 14 13 11 11 14 13 12 14 11 10 8 8 7 13 18 17 16 12 5 6 7 11 15 18 20 23 25 23 18 13 10 9 4 6
14 14 16 15 16 14 11 10 11 13 15 13 12 12 9 11 11 12 10 9 9 7 13 16 15 14 13 12 10 13 14 18 24 26 27 27 20 17 13 10 7 4 2
11 10 13 11 14 13 12 14 13 8 10 12 10 10 5 6 9 11 8 8 11 9 10 14 11 11 12 14 14 14 16 22 27 27 23 20 16 10 10 9 7 7 8
14 11 14 14 10 9 13 16 20 11 11 11 16 17 16 9 9 7 6 8 10 8 9 11 11 11 11 14 15 16 23 24 25 23 21 18 13 13 14 12 11 16 20
11 7 13 13 12 11 12 17 17 17 16 16 19 17 20 19 16 11 7 4 6 5 8 10 11 15 16 18 19 21 21 21 20 19 16 15 16 15 14 14 19 21 21
14 12 13 11 9 10 13 15 16 15 16 17 19 18 16 18 16 13 11 9 7 4 5 10 16 18 18 19 21 21 20 19 18 16 17 16 15 15 18 19 22 23 27
14 13 13 9 10 10 9 10 13 11 14 14 16 18 19 10 15 11 10 8 9 9 15 20 21 20 20 19 20 21 18 16 16 16 16 18 20 21 23 24 26 29 29
11 12 10 11 12 11 9 10 10 11 10 12 13 16 19 14 17 21 23 20 18 20 24 24 22 22 21 20 20 18 18 17 17 18 19 21 23 24 27 26 27 27 26
12 11 11 12 13 12 12 11 12 13 14 12 14 15 16 21 28 31 28 27 26 25 24 24 23 21 20 20 19 20 19 18 19 21 24 23 23 24 28 32 30 30 28
15 13 13 13 12 11 11 14 15 16 17 17 16 17 18 23 23 27 27 29 27 25 24 23 22 21 21 21 20 19 18 19 22 24 22 23 25 29 34 31 29 27 27
15 16 20 25 26 27 25 21 23 22 22 20 20 19 20 24 29 29 28 27 27 27 26 26 24 24 23 22 21 23 25 25 24 24 25 27 30 31 28 26 22 20 18
20 29 34 29 24 28 29 28 26 27 25 23 21 20 20 24 23 23 25 26 25 27 28 28 26 23 23 25 25 26 25 25 26 27 27 27 27 27 26 22 19 17 15
23 25 26 31 31 32 31 32 31 31 29 27 24 21 19 19 19 23 25 26 27 27 26 25 26 27 25 28 31 32 31 29 27 27 27 27 25 22 21 20 20 19 17
24 24 27 26 29 31 32 30 33 36 38 40 36 31 30 30 28 28 29 30 27 26 26 26 28 27 30 30 28 27 29 28 26 26 26 27 26 25 23 19 17 17 17
24 27 28 27 26 23 25 33 31 33 37 36 35 39 36 37 35 32 31 29 30 28 26 25 26 27 24 23 26 30 33 32 28 25 22 19 17 18 18 19 21 16 12
19 19 20 25 25 24 24 21 26 29 31 35 33 29 32 33 39 39 38 37 37 35 34 34 33 33 31 28 26 25 23 18 16 15 15 15 16 15 16 20 16 10 11
16 21 24 23 21 21 22 22 23 22 22 24 26 26 29 28 26 27 27 29 31 32 32 31 29 26 25 23 21 20 19 19 18 17 20 22 20 17 14 13 13 15 13
Wind_Direction
314 314 318 329 331 327 324 337 343 337 332 333 332 349 4 15 6 350 347 346 341 337 325 321 324 317 331 328 334 307 334 283 277 178 164 168 176 165 138 114 102 111 104
321 320 325 329 330 336 342 346 355 359 2 0 12 359 343 1 349 340 334 338 331 338 339 333 332 343 336 343 344 341 334 312 275 169 166 155 155 153 148 110 108 98 89
328 326 326 333 335 343 354 347 349 348 351 351 3 353 352 350 351 2 1 351 346 355 0 15 6 345 334 346 326 352 9 296 238 213 177 171 153 162 146 117 111 98 76
339 339 339 346 1 11 356 350 347 346 343 340 348 354 356 359 1 20 22 14 13 12 20 26 23 9 10 357 342 331 327 341 308 230 193 181 172 166 169 136 111 101 90
343 353 20 16 5 357 355 347 341 343 343 344 350 352 353 5 9 12 23 26 35 47 54 53 51 42 28 19 2 337 306 297 271 191 182 174 174 168 166 139 120 129 83
25 18 6 2 359 354 352 357 356 355 354 353 354 346 339 2 3 13 30 23 31 42 45 41 39 34 26 27 21 4 336 251 178 183 175 182 176 175 155 136 137 126 98
9 6 1 2 358 1 354 354 0 2 4 9 8 347 346 354 1 15 356 358 30 41 28 22 26 20 20 15 20 10 1 257 178 172 173 196 188 165 142 134 132 129 96
8 3 8 4 3 3 2 10 12 9 6 20 5 4 10 14 11 360 348 337 31 35 26 9 0 356 358 9 5 22 46 16 161 165 164 158 161 135 124 123 103 96 97
357 7 12 10 10 9 20 18 21 14 16 16 7 14 7 14 18 8 22 57 25 64 16 354 355 353 352 353 6 24 54 92 114 111 108 119 133 130 127 121 119 106 100
22 23 14 12 8 7 13 20 27 20 22 19 15 27 25 28 31 25 26 42 66 24 13 348 1 13 20 43 36 63 95 97 109 112 117 125 130 125 114 117 147 120 71
14 12 5 5 11 14 23 30 36 26 22 33 32 25 24 25 21 14 14 19 27 6 355 4 22 35 59 62 68 90 100 111 115 117 123 127 117 108 98 103 100 53 142
357 356 357 348 1 18 8 6 360 36 37 17 360 359 24 357 352 357 10 16 7 3 17 10 43 55 70 66 75 88 114 122 120 117 116 116 111 104 86 111 128 137 124
334 344 2 359 353 358 351 5 21 20 19 8 10 17 10 328 328 347 344 27 20 25 23 37 50 79 82 68 82 105 118 116 114 111 113 116 117 110 110 114 109 107 101
324 348 8 357 354 358 357 9 22 24 26 27 24 25 27 26 26 33 24 9 41 50 24 42 73 96 90 85 95 107 117 119 120 115 111 108 110 113 114 116 116 108 103
26 24 4 6 11 15 18 14 8 20 18 24 21 16 11 25 25 27 45 54 60 43 28 83 101 101 102 96 100 105 106 107 103 100 105 106 107 107 111 113 108 103 104
22 22 40 37 35 17 11 17 7 14 4 12 18 25 26 36 14 34 30 63 73 80 97 105 104 105 103 102 98 99 96 96 98 103 102 105 105 105 107 106 102 100 101
29 52 41 40 38 39 26 13 15 10 8 24 39 31 36 38 49 68 77 82 90 98 101 106 103 103 99 99 100 96 95 95 100 102 101 103 103 104 104 101 101 99 96
42 40 45 28 25 37 34 29 26 27 49 53 50 45 61 64 73 78 83 83 88 91 97 106 105 104 104 100 99 102 101 97 98 98 102 100 106 104 103 101 99 98 94
43 46 22 27 39 45 36 46 55 64 65 67 68 68 75 84 76 81 82 83 87 89 92 100 105 102 101 100 98 95 93 97 99 104 101 96 103 107 105 104 101 98 93
36 44 60 67 65 57 56 69 71 71 76 77 76 81 93 88 85 77 75 78 85 90 93 95 97 98 97 96 92 93 98 101 101 102 101 101 106 111 106 102 97 92 92
75 72 64 62 68 72 74 71 73 75 78 81 84 85 89 95 86 80 83 85 89 92 95 96 93 94 94 93 88 89 92 96 97 98 101 103 109 107 98 87 83 81 81
95 73 67 67 65 71 75 76 73 77 80 81 83 85 86 91 82 83 84 91 94 93 95 92 93 95 89 89 88 87 87 87 92 95 96 98 99 91 83 74 68 60 54
78 82 62 61 63 68 73 78 79 74 80 76 77 81 86 84 83 85 90 98 93 94 96 99 99 98 103 96 94 89 85 80 83 96 91 87 85 80 73 59 47 47 56
75 77 69 67 69 72 64 71 78 77 79 76 76 69 77 81 83 87 91 94 97 92 86 89 89 94 92 88 91 93 95 96 96 91 87 76 64 63 59 61 73 55 61
81 71 65 69 70 73 77 73 71 70 69 70 75 75 72 84 86 85 83 86 89 90 88 89 92 91 92 90 87 85 83 82 80 78 74 73 71 74 78 80 73 58 75
95 83 73 79 76 79 87 87 81 75 74 82 78 79 75 82 88 94 93 94 93 91 90 89 86 88 88 86 86 83 85 84 85 83 85 89 87 83 85 81 76 72 61